Terug naar catalogus

COSMOS 1375 DEB

ActiefLEO
NORAD 16209·DEBRIS·🇷🇺 Russia

Gelanceerd Jun 6, 1982 vanaf Plesetsk Cosmodrome

Loading…

Volgende Passages (komende 24 uur)

TLE

VersSource: Space-Track

Epoch: Sep 14, 2026, 22:17 UTC

1 16209U 82055L   26257.92849632 -.00000085  00000-0 -59372-5 0  9999
2 16209  65.8355  52.0933 0024813 309.0867 131.9876 13.71428275 52737

Volg COSMOS 1375 DEB in realtime met AllMySat

Download on the App Store